Time,TemperatureF,DewpointF,PressureIn,WindDirection,WindDirectionDegrees,WindSpeedMPH,WindSpeedGustMPH,Humidity,HourlyPrecipIn,Conditions,Clouds,dailyrainin,SoftwareType,DateUTC
2013-02-18 00:02:00,47.0,-99.9,30.34,ENE,62,5.0,9.0,-999,-99.99,,,-99.99,,2013-02-18 05:02:00,
2013-02-18 00:11:00,47.0,-99.9,30.34,ENE,68,6.0,9.0,-999,-99.99,,,-99.99,,2013-02-18 05:11:00,
2013-02-18 00:21:00,47.0,-99.9,30.34,ENE,64,7.0,9.0,-999,-99.99,,,-99.99,,2013-02-18 05:21:00,
2013-02-18 00:32:00,46.0,-99.9,30.34,ENE,69,7.0,10.0,-999,-99.99,,,-99.99,,2013-02-18 05:32:00,
2013-02-18 00:42:00,46.0,-99.9,30.34,ENE,73,6.0,10.0,-999,-99.99,,,-99.99,,2013-02-18 05:42:00,
2013-02-18 00:52:00,46.0,-99.9,30.34,ENE,76,5.0,9.0,-999,-99.99,,,-99.99,,2013-02-18 05:52:00,
2013-02-18 01:02:00,46.0,-99.9,30.34,ENE,68,6.0,9.0,-999,-99.99,,,-99.99,,2013-02-18 06:02:00,
2013-02-18 01:11:00,46.0,-99.9,30.33,ENE,71,6.0,9.0,-999,-99.99,,,-99.99,,2013-02-18 06:11:00,
2013-02-18 01:22:00,46.0,-99.9,30.33,ENE,72,5.0,10.0,-999,-99.99,,,-99.99,,2013-02-18 06:22:00,
2013-02-18 01:32:00,46.0,-99.9,30.33,ENE,67,5.0,8.0,-999,-99.99,,,-99.99,,2013-02-18 06:32:00,
2013-02-18 01:42:00,45.0,-99.9,30.33,ENE,72,5.0,9.0,-999,-99.99,,,-99.99,,2013-02-18 06:42:00,
2013-02-18 01:52:00,45.0,-99.9,30.33,ENE,71,4.0,9.0,-999,-99.99,,,-99.99,,2013-02-18 06:52:00,
2013-02-18 02:02:00,45.0,-99.9,30.33,ENE,68,5.0,9.0,-999,-99.99,,,-99.99,,2013-02-18 07:02:00,
2013-02-18 02:11:00,45.0,-99.9,30.33,ENE,63,5.0,8.0,-999,-99.99,,,-99.99,,2013-02-18 07:11:00,
2013-02-18 02:22:00,45.0,-99.9,30.33,ENE,75,6.0,10.0,-999,-99.99,,,-99.99,,2013-02-18 07:22:00,
2013-02-18 02:32:00,45.0,-99.9,30.32,ENE,60,5.0,8.0,-999,-99.99,,,-99.99,,2013-02-18 07:32:00,
2013-02-18 02:42:00,45.0,-99.9,30.32,ENE,62,5.0,10.0,-999,-99.99,,,-99.99,,2013-02-18 07:42:00,
2013-02-18 02:52:00,45.0,-99.9,30.31,ENE,58,5.0,8.0,-999,-99.99,,,-99.99,,2013-02-18 07:52:00,
2013-02-18 03:02:00,45.0,-99.9,30.31,ENE,65,7.0,11.0,-999,-99.99,,,-99.99,,2013-02-18 08:02:00,
2013-02-18 03:11:00,44.0,-99.9,30.31,ENE,70,6.0,9.0,-999,-99.99,,,-99.99,,2013-02-18 08:11:00,
2013-02-18 03:22:00,44.0,-99.9,30.31,ENE,60,6.0,9.0,-999,-99.99,,,-99.99,,2013-02-18 08:22:00,
2013-02-18 03:33:00,44.0,-99.9,30.31,ENE,63,4.0,9.0,-999,-99.99,,,-99.99,,2013-02-18 08:33:00,
2013-02-18 03:42:00,44.0,-99.9,30.31,ENE,69,4.0,7.0,-999,-99.99,,,-99.99,,2013-02-18 08:42:00,
2013-02-18 03:52:00,43.0,-99.9,30.31,ENE,64,4.0,7.0,-999,-99.99,,,-99.99,,2013-02-18 08:52:00,
2013-02-18 04:03:00,43.0,-99.9,30.31,NE,50,5.0,10.0,-999,-99.99,,,-99.99,,2013-02-18 09:03:00,
2013-02-18 04:11:00,43.0,-99.9,30.31,NE,56,5.0,8.0,-999,-99.99,,,-99.99,,2013-02-18 09:11:00,
2013-02-18 04:22:00,44.0,-99.9,30.30,NE,42,4.0,8.0,-999,-99.99,,,-99.99,,2013-02-18 09:22:00,
2013-02-18 04:32:00,44.0,-99.9,30.30,ENE,57,5.0,7.0,-999,-99.99,,,-99.99,,2013-02-18 09:32:00,
2013-02-18 04:42:00,44.0,-99.9,30.31,NE,40,4.0,8.0,-999,-99.99,,,-99.99,,2013-02-18 09:42:00,
2013-02-18 04:52:00,44.0,-99.9,30.31,NNE,32,6.0,9.0,-999,-99.99,,,-99.99,,2013-02-18 09:52:00,
2013-02-18 05:01:00,44.0,-99.9,30.30,NE,47,5.0,8.0,-999,-99.99,,,-99.99,,2013-02-18 10:01:00,
2013-02-18 05:12:00,45.0,-99.9,30.30,NE,37,5.0,9.0,-999,-99.99,,,-99.99,,2013-02-18 10:12:00,
2013-02-18 05:22:00,44.0,-99.9,30.30,NNE,25,6.0,9.0,-999,-99.99,,,-99.99,,2013-02-18 10:22:00,
2013-02-18 05:32:00,44.0,-99.9,30.30,NNE,21,5.0,9.0,-999,-99.99,,,-99.99,,2013-02-18 10:32:00,
2013-02-18 05:43:00,44.0,-99.9,30.30,NNE,33,6.0,8.0,-999,-99.99,,,-99.99,,2013-02-18 10:43:00,
2013-02-18 05:53:00,44.0,-99.9,30.31,NNE,30,5.0,7.0,-999,-99.99,,,-99.99,,2013-02-18 10:53:00,
2013-02-18 06:02:00,44.0,-99.9,30.31,NE,36,4.0,7.0,-999,-99.99,,,-99.99,,2013-02-18 11:02:00,
2013-02-18 06:12:00,44.0,-99.9,30.31,NE,44,4.0,6.0,-999,-99.99,,,-99.99,,2013-02-18 11:12:00,
2013-02-18 06:22:00,44.0,-99.9,30.31,NE,44,5.0,8.0,-999,-99.99,,,-99.99,,2013-02-18 11:22:00,
2013-02-18 06:33:00,44.0,-99.9,30.31,NE,48,5.0,8.0,-999,-99.99,,,-99.99,,2013-02-18 11:33:00,
2013-02-18 06:43:00,44.0,-99.9,30.31,ENE,58,6.0,9.0,-999,-99.99,,,-99.99,,2013-02-18 11:43:00,
2013-02-18 06:54:00,44.0,-99.9,30.31,ENE,57,6.0,9.0,-999,-99.99,,,-99.99,,2013-02-18 11:54:00,
2013-02-18 07:02:00,44.0,-99.9,30.31,NE,51,5.0,9.0,-999,-99.99,,,-99.99,,2013-02-18 12:02:00,
2013-02-18 07:12:00,44.0,-99.9,30.31,ENE,57,6.0,8.0,-999,-99.99,,,-99.99,,2013-02-18 12:12:00,
2013-02-18 07:22:00,45.0,-99.9,30.32,NE,55,6.0,10.0,-999,-99.99,,,-99.99,,2013-02-18 12:22:00,
2013-02-18 07:32:00,45.0,-99.9,30.32,NE,48,5.0,8.0,-999,-99.99,,,-99.99,,2013-02-18 12:32:00,
2013-02-18 07:42:00,46.0,-99.9,30.32,NE,54,4.0,8.0,-999,-99.99,,,-99.99,,2013-02-18 12:42:00,
2013-02-18 07:54:00,46.0,-99.9,30.32,NE,52,6.0,9.0,-999,-99.99,,,-99.99,,2013-02-18 12:54:00,
2013-02-18 08:03:00,47.0,-99.9,30.32,NE,46,5.0,10.0,-999,-99.99,,,-99.99,,2013-02-18 13:03:00,
2013-02-18 08:12:00,47.0,-99.9,30.33,NE,45,6.0,12.0,-999,-99.99,,,-99.99,,2013-02-18 13:12:00,
2013-02-18 08:23:00,48.0,-99.9,30.33,NE,38,7.0,14.0,-999,-99.99,,,-99.99,,2013-02-18 13:23:00,
2013-02-18 08:33:00,48.0,-99.9,30.33,NE,38,10.0,13.0,-999,-99.99,,,-99.99,,2013-02-18 13:33:00,
2013-02-18 08:53:00,49.0,-99.9,30.33,NE,43,9.0,13.0,-999,-99.99,,,-99.99,,2013-02-18 13:53:00,
2013-02-18 09:02:00,49.0,-99.9,30.33,ENE,57,9.0,15.0,-999,-99.99,,,-99.99,,2013-02-18 14:02:00,
2013-02-18 09:12:00,50.0,-99.9,30.33,NE,52,10.0,15.0,-999,-99.99,,,-99.99,,2013-02-18 14:12:00,
2013-02-18 09:22:00,51.0,-99.9,30.33,NE,53,8.0,17.0,-999,-99.99,,,-99.99,,2013-02-18 14:22:00,
2013-02-18 09:34:00,51.0,-99.9,30.33,NE,43,9.0,14.0,-999,-99.99,,,-99.99,,2013-02-18 14:34:00,
2013-02-18 09:42:00,52.0,-99.9,30.34,NE,39,10.0,13.0,-999,-99.99,,,-99.99,,2013-02-18 14:42:00,
2013-02-18 09:54:00,52.0,-99.9,30.34,NNE,29,8.0,13.0,-999,-99.99,,,-99.99,,2013-02-18 14:54:00,
2013-02-18 10:02:00,53.0,-99.9,30.34,NE,37,9.0,13.0,-999,-99.99,,,-99.99,,2013-02-18 15:02:00,
2013-02-18 10:12:00,54.0,-99.9,30.34,NE,42,8.0,14.0,-999,-99.99,,,-99.99,,2013-02-18 15:12:00,
2013-02-18 10:22:00,55.0,-99.9,30.34,ENE,58,8.0,14.0,-999,-99.99,,,-99.99,,2013-02-18 15:22:00,
2013-02-18 10:32:00,55.0,-99.9,30.34,NE,51,9.0,13.0,-999,-99.99,,,-99.99,,2013-02-18 15:32:00,
2013-02-18 10:42:00,56.0,-99.9,30.34,ENE,57,11.0,15.0,-999,-99.99,,,-99.99,,2013-02-18 15:42:00,
2013-02-18 10:53:00,57.0,-99.9,30.34,NE,53,10.0,14.0,-999,-99.99,,,-99.99,,2013-02-18 15:53:00,
2013-02-18 11:03:00,58.0,-99.9,30.33,ENE,63,8.0,13.0,-999,-99.99,,,-99.99,,2013-02-18 16:03:00,
2013-02-18 11:12:00,59.0,-99.9,30.33,ENE,70,9.0,13.0,-999,-99.99,,,-99.99,,2013-02-18 16:12:00,
2013-02-18 11:23:00,60.0,-99.9,30.33,ENE,72,8.0,14.0,-999,-99.99,,,-99.99,,2013-02-18 16:23:00,
2013-02-18 11:33:00,60.0,-99.9,30.33,ENE,68,10.0,15.0,-999,-99.99,,,-99.99,,2013-02-18 16:33:00,
2013-02-18 11:43:00,62.0,-99.9,30.33,East,82,8.0,17.0,-999,-99.99,,,-99.99,,2013-02-18 16:43:00,
2013-02-18 11:53:00,62.0,-99.9,30.32,East,81,9.0,13.0,-999,-99.99,,,-99.99,,2013-02-18 16:53:00,
2013-02-18 12:04:00,62.0,-99.9,30.32,ENE,73,7.0,13.0,-999,-99.99,,,-99.99,,2013-02-18 17:04:00,
2013-02-18 12:13:00,64.0,-99.9,30.32,NE,53,11.0,15.0,-999,-99.99,,,-99.99,,2013-02-18 17:13:00,
2013-02-18 12:23:00,64.0,-99.9,30.32,ENE,75,10.0,18.0,-999,-99.99,,,-99.99,,2013-02-18 17:23:00,
2013-02-18 12:33:00,64.0,-99.9,30.31,ESE,120,9.0,13.0,-999,-99.99,,,-99.99,,2013-02-18 17:33:00,
2013-02-18 12:43:00,65.0,-99.9,30.30,East,100,6.0,16.0,-999,-99.99,,,-99.99,,2013-02-18 17:43:00,
2013-02-18 12:53:00,65.0,-99.9,30.30,East,86,10.0,20.0,-999,-99.99,,,-99.99,,2013-02-18 17:53:00,
2013-02-18 13:03:00,65.0,-99.9,30.29,ESE,114,9.0,13.0,-999,-99.99,,,-99.99,,2013-02-18 18:03:00,
2013-02-18 13:13:00,66.0,-99.9,30.29,SE,144,8.0,15.0,-999,-99.99,,,-99.99,,2013-02-18 18:13:00,
2013-02-18 13:23:00,67.0,-99.9,30.28,East,87,7.0,13.0,-999,-99.99,,,-99.99,,2013-02-18 18:23:00,
2013-02-18 13:33:00,67.0,-99.9,30.27,East,101,9.0,16.0,-999,-99.99,,,-99.99,,2013-02-18 18:33:00,
2013-02-18 13:43:00,68.0,-99.9,30.26,ENE,78,9.0,14.0,-999,-99.99,,,-99.99,,2013-02-18 18:43:00,
2013-02-18 13:53:00,67.0,-99.9,30.26,SE,136,9.0,18.0,-999,-99.99,,,-99.99,,2013-02-18 18:53:00,
2013-02-18 14:03:00,68.0,-99.9,30.26,ESE,105,10.0,15.0,-999,-99.99,,,-99.99,,2013-02-18 19:03:00,
2013-02-18 14:13:00,68.0,-99.9,30.25,ENE,74,8.0,15.0,-999,-99.99,,,-99.99,,2013-02-18 19:13:00,
2013-02-18 14:23:00,69.0,-99.9,30.24,ESE,104,6.0,17.0,-999,-99.99,,,-99.99,,2013-02-18 19:23:00,
2013-02-18 14:34:00,69.0,-99.9,30.24,East,88,7.0,15.0,-999,-99.99,,,-99.99,,2013-02-18 19:34:00,
2013-02-18 14:43:00,68.0,-99.9,30.24,ESE,113,9.0,17.0,-999,-99.99,,,-99.99,,2013-02-18 19:43:00,
2013-02-18 14:53:00,68.0,-99.9,30.24,ESE,107,11.0,15.0,-999,-99.99,,,-99.99,,2013-02-18 19:53:00,
2013-02-18 15:03:00,69.0,-99.9,30.24,ESE,117,8.0,12.0,-999,-99.99,,,-99.99,,2013-02-18 20:03:00,
2013-02-18 15:13:00,69.0,-99.9,30.24,SE,128,7.0,16.0,-999,-99.99,,,-99.99,,2013-02-18 20:13:00,
2013-02-18 15:24:00,69.0,-99.9,30.24,ESE,108,9.0,13.0,-999,-99.99,,,-99.99,,2013-02-18 20:24:00,
2013-02-18 15:34:00,69.0,-99.9,30.23,ESE,102,8.0,13.0,-999,-99.99,,,-99.99,,2013-02-18 20:34:00,
2013-02-18 15:43:00,69.0,-99.9,30.23,ESE,119,8.0,13.0,-999,-99.99,,,-99.99,,2013-02-18 20:43:00,
2013-02-18 15:53:00,69.0,-99.9,30.23,SE,137,11.0,15.0,-999,-99.99,,,-99.99,,2013-02-18 20:53:00,
2013-02-18 16:03:00,69.0,-99.9,30.23,SSE,149,8.0,12.0,-999,-99.99,,,-99.99,,2013-02-18 21:03:00,
2013-02-18 16:12:00,70.0,-99.9,30.23,ESE,118,4.0,11.0,-999,-99.99,,,-99.99,,2013-02-18 21:12:00,
2013-02-18 16:23:00,69.0,-99.9,30.23,ESE,123,9.0,13.0,-999,-99.99,,,-99.99,,2013-02-18 21:23:00,
2013-02-18 16:33:00,70.0,-99.9,30.23,SE,142,7.0,10.0,-999,-99.99,,,-99.99,,2013-02-18 21:33:00,
2013-02-18 16:43:00,69.0,-99.9,30.23,SSE,148,8.0,13.0,-999,-99.99,,,-99.99,,2013-02-18 21:43:00,
2013-02-18 16:53:00,69.0,-99.9,30.23,SE,140,7.0,11.0,-999,-99.99,,,-99.99,,2013-02-18 21:53:00,
2013-02-18 17:03:00,70.0,-99.9,30.23,SE,133,12.0,16.0,-999,-99.99,,,-99.99,,2013-02-18 22:03:00,
2013-02-18 17:13:00,70.0,-99.9,30.22,SE,133,8.0,13.0,-999,-99.99,,,-99.99,,2013-02-18 22:13:00,
2013-02-18 17:23:00,69.0,-99.9,30.22,ESE,121,10.0,15.0,-999,-99.99,,,-99.99,,2013-02-18 22:23:00,
2013-02-18 17:33:00,69.0,-99.9,30.22,ESE,115,8.0,14.0,-999,-99.99,,,-99.99,,2013-02-18 22:33:00,
2013-02-18 17:44:00,69.0,-99.9,30.23,SE,128,6.0,9.0,-999,-99.99,,,-99.99,,2013-02-18 22:44:00,
2013-02-18 17:54:00,69.0,-99.9,30.23,ESE,102,8.0,13.0,-999,-99.99,,,-99.99,,2013-02-18 22:54:00,
2013-02-18 18:03:00,68.0,-99.9,30.23,SE,144,8.0,11.0,-999,-99.99,,,-99.99,,2013-02-18 23:03:00,
2013-02-18 18:12:00,68.0,-99.9,30.23,ESE,122,5.0,7.0,-999,-99.99,,,-99.99,,2013-02-18 23:12:00,
2013-02-18 18:23:00,68.0,-99.9,30.23,East,91,8.0,11.0,-999,-99.99,,,-99.99,,2013-02-18 23:23:00,
2013-02-18 18:34:00,68.0,-99.9,30.22,ESE,108,8.0,11.0,-999,-99.99,,,-99.99,,2013-02-18 23:34:00,
2013-02-18 18:43:00,67.0,-99.9,30.23,East,96,7.0,10.0,-999,-99.99,,,-99.99,,2013-02-18 23:43:00,
2013-02-18 18:54:00,67.0,-99.9,30.23,East,88,5.0,9.0,-999,-99.99,,,-99.99,,2013-02-18 23:54:00,
2013-02-18 19:03:00,67.0,-99.9,30.23,East,81,5.0,9.0,-999,-99.99,,,-99.99,,2013-02-19 00:03:00,
2013-02-18 19:13:00,66.0,-99.9,30.23,East,79,4.0,8.0,-999,-99.99,,,-99.99,,2013-02-19 00:13:00,
2013-02-18 19:23:00,66.0,-99.9,30.23,East,90,5.0,9.0,-999,-99.99,,,-99.99,,2013-02-19 00:23:00,
2013-02-18 19:36:00,65.0,-99.9,30.24,East,91,5.0,7.0,-999,-99.99,,,-99.99,,2013-02-19 00:36:00,
2013-02-18 19:44:00,65.0,-99.9,30.24,East,82,5.0,9.0,-999,-99.99,,,-99.99,,2013-02-19 00:44:00,
2013-02-18 19:55:00,65.0,-99.9,30.24,East,87,4.0,9.0,-999,-99.99,,,-99.99,,2013-02-19 00:55:00,
2013-02-18 20:03:00,64.0,-99.9,30.24,ENE,71,4.0,6.0,-999,-99.99,,,-99.99,,2013-02-19 01:03:00,
2013-02-18 20:15:00,64.0,-99.9,30.24,ENE,76,4.0,7.0,-999,-99.99,,,-99.99,,2013-02-19 01:15:00,
2013-02-18 20:25:00,63.0,-99.9,30.24,East,88,3.0,7.0,-999,-99.99,,,-99.99,,2013-02-19 01:25:00,
2013-02-18 20:35:00,63.0,-99.9,30.24,ENE,78,4.0,5.0,-999,-99.99,,,-99.99,,2013-02-19 01:35:00,
2013-02-18 20:45:00,63.0,-99.9,30.24,ENE,64,5.0,7.0,-999,-99.99,,,-99.99,,2013-02-19 01:45:00,
2013-02-18 20:57:00,63.0,-99.9,30.24,ENE,70,5.0,7.0,-999,-99.99,,,-99.99,,2013-02-19 01:57:00,
2013-02-18 21:04:00,62.0,-99.9,30.24,East,85,6.0,8.0,-999,-99.99,,,-99.99,,2013-02-19 02:04:00,
2013-02-18 21:14:00,62.0,-99.9,30.24,ENE,72,6.0,9.0,-999,-99.99,,,-99.99,,2013-02-19 02:14:00,
2013-02-18 21:23:00,62.0,-99.9,30.24,ENE,70,5.0,8.0,-999,-99.99,,,-99.99,,2013-02-19 02:23:00,
2013-02-18 21:35:00,62.0,-99.9,30.25,ENE,76,4.0,9.0,-999,-99.99,,,-99.99,,2013-02-19 02:35:00,
2013-02-18 21:44:00,61.0,-99.9,30.25,ENE,67,4.0,7.0,-999,-99.99,,,-99.99,,2013-02-19 02:44:00,
2013-02-18 21:56:00,61.0,-99.9,30.25,ENE,72,4.0,9.0,-999,-99.99,,,-99.99,,2013-02-19 02:56:00,
2013-02-18 22:08:00,61.0,-99.9,30.25,ENE,70,5.0,10.0,-999,-99.99,,,-99.99,,2013-02-19 03:08:00,
2013-02-18 22:15:00,60.0,-99.9,30.25,ENE,67,5.0,9.0,-999,-99.99,,,-99.99,,2013-02-19 03:15:00,
2013-02-18 22:25:00,60.0,-99.9,30.25,ENE,76,4.0,6.0,-999,-99.99,,,-99.99,,2013-02-19 03:25:00,
2013-02-18 22:35:00,60.0,-99.9,30.25,ENE,75,5.0,8.0,-999,-99.99,,,-99.99,,2013-02-19 03:35:00,
2013-02-18 22:46:00,60.0,-99.9,30.25,ENE,75,5.0,7.0,-999,-99.99,,,-99.99,,2013-02-19 03:46:00,
2013-02-18 22:55:00,60.0,-99.9,30.25,ENE,64,4.0,8.0,-999,-99.99,,,-99.99,,2013-02-19 03:55:00,
2013-02-18 23:03:00,60.0,-99.9,30.25,ENE,60,4.0,7.0,-999,-99.99,,,-99.99,,2013-02-19 04:03:00,
2013-02-18 23:15:00,59.0,-99.9,30.25,ENE,61,4.0,8.0,-999,-99.99,,,-99.99,,2013-02-19 04:15:00,
2013-02-18 23:24:00,59.0,-99.9,30.25,ENE,71,4.0,6.0,-999,-99.99,,,-99.99,,2013-02-19 04:24:00,
2013-02-18 23:34:00,59.0,-99.9,30.25,NE,46,4.0,5.0,-999,-99.99,,,-99.99,,2013-02-19 04:34:00,
2013-02-18 23:45:00,58.0,-99.9,30.24,ENE,63,3.0,5.0,-999,-99.99,,,-99.99,,2013-02-19 04:45:00,
2013-02-18 23:56:00,58.0,-99.9,30.23,ENE,74,3.0,5.0,-999,-99.99,,,-99.99,,2013-02-19 04:56:00,